Garden City, GA

6:24 AM EDT on October 01, 2016 (GMT -0400)
Savannah International

Weather History for KSAV - September, 2013

Change the Weather History Date:

Saturday, September 14, 2013

  Actual Average Record
Temperature  
Mean Temperature 80 °F 78 °F  
Max Temperature 90 °F 87 °F 96 °F (1991)
Min Temperature 70 °F 69 °F 54 °F (1964)
Degree Days  
Heating Degree Days 0 0  
Month to date heating degree days 0 0  
Since 1 July heating degree days 0 0  
Cooling Degree Days 15 13  
Month to date cooling degree days 233 194  
Year to date cooling degree days 2082 2101  
Growing Degree Days 30 (Base 50)    
Moisture  
Dew Point 69 °F    
Average Humidity 73    
Maximum Humidity 90    
Minimum Humidity 55    
Precipitation  
Precipitation 0.02 in 0.16 in 5.09 in (1976)
Month to date precipitation 0.57 2.37  
Year to date precipitation 47.74 36.74  
Sea Level Pressure  
Sea Level Pressure 29.92 in    
Wind  
Wind Speed 7 mph (NE)    
Max Wind Speed 16 mph    
Max Gust Speed 20 mph    
Visibility 10 miles    
Events      
T = Trace of Precipitation, MM = Missing Value Source: NWS Daily Summary

Daily Weather History Graph

Daily Weather History Graph

Search for Another Location

Airport or City:

Trip Planner

Search our weather history database for the weather conditions in past years. The results will help you decide how hot, cold, wet, or windy it might be!

Date:

Astronomy

Sep. 14, 2013 Rise Set
Actual Time 7:08 AM EDT 7:31 PM EDT
Civil Twilight 6:43 AM EDT 7:56 PM EDT
Nautical Twilight 6:14 AM EDT 8:24 PM EDT
Astronomical Twilight 5:45 AM EDT 8:54 PM EDT
Moon 3:59 PM EDT (9/14) 1:52 AM EDT (9/14)
Length of Visible Light 13h 12m
Length of Day
12h 23m
Waxing Gibbous, 72% of the Moon is Illuminated
Sep 14
Waxing Gibbous
Sep 19
Full
Sep 26
Last Quarter
Oct 4
New
Oct 11
First Quarter

Hourly Weather History & Observations

Time (EDT) Temp. Heat Index Dew Point Humidity Pressure Visibility Wind Dir Wind Speed Gust Speed Precip Events Conditions
12:53 AM 75.0 °F - 71.1 °F 87% 29.83 in 9.0 mi Calm Calm - N/A   Clear
1:53 AM 73.9 °F - 70.0 °F 87% 29.82 in 8.0 mi Calm Calm - N/A   Clear
2:53 AM 73.0 °F - 70.0 °F 90% 29.81 in 7.0 mi Calm Calm - N/A   Clear
3:53 AM 73.0 °F - 70.0 °F 90% 29.81 in 6.0 mi NW 4.6 mph - N/A   Clear
4:53 AM 72.0 °F - 68.0 °F 87% 29.83 in 9.0 mi North 6.9 mph - N/A   Clear
5:53 AM 72.0 °F - 66.9 °F 84% 29.84 in 10.0 mi NNE 9.2 mph - N/A   Mostly Cloudy
6:53 AM 71.1 °F - 63.0 °F 75% 29.86 in 10.0 mi NNE 10.4 mph - N/A   Mostly Cloudy
7:53 AM 70.0 °F - 61.0 °F 73% 29.90 in 10.0 mi NNE 8.1 mph - N/A   Scattered Clouds
8:53 AM 72.0 °F - 61.0 °F 68% 29.91 in 10.0 mi NNE 8.1 mph - N/A   Scattered Clouds
9:53 AM 75.0 °F - 63.0 °F 66% 29.93 in 10.0 mi NNE 9.2 mph - N/A   Mostly Cloudy
10:53 AM 79.0 °F - 66.0 °F 64% 29.94 in 10.0 mi ENE 5.8 mph - N/A   Scattered Clouds
11:53 AM 82.9 °F 85.8 °F 68.0 °F 60% 29.95 in 10.0 mi NE 5.8 mph - N/A   Scattered Clouds
12:53 PM 84.0 °F 88.4 °F 70.0 °F 63% 29.94 in 10.0 mi Variable 4.6 mph - N/A   Partly Cloudy
1:53 PM 84.9 °F 89.4 °F 70.0 °F 61% 29.94 in 10.0 mi Variable 4.6 mph - N/A   Scattered Clouds
2:53 PM 86.0 °F 90.7 °F 70.0 °F 59% 29.93 in 10.0 mi Variable 3.5 mph - N/A   Mostly Cloudy
3:53 PM 87.1 °F 92.0 °F 70.0 °F 57% 29.92 in 10.0 mi ENE 6.9 mph - N/A   Mostly Cloudy
4:53 PM 84.0 °F 89.6 °F 72.0 °F 67% 29.93 in 10.0 mi ESE 5.8 mph - N/A   Mostly Cloudy
5:53 PM 84.9 °F 91.4 °F 73.0 °F 67% 29.93 in 10.0 mi ENE 5.8 mph - N/A   Scattered Clouds
6:53 PM 82.0 °F 86.7 °F 72.0 °F 71% 29.95 in 10.0 mi East 13.8 mph 19.6 mph N/A   Mostly Cloudy
7:17 PM 80.6 °F 84.6 °F 71.6 °F 74% 29.96 in 10.0 mi East 9.2 mph 17.3 mph N/A   Mostly Cloudy
7:53 PM 78.1 °F - 72.0 °F 81% 29.98 in 10.0 mi ENE 8.1 mph - 0.02 in   Mostly Cloudy
8:00 PM 78.8 °F - 71.6 °F 78% 29.98 in 10.0 mi ENE 9.2 mph - N/A   Mostly Cloudy
8:53 PM 77.0 °F - 72.0 °F 84% 30.01 in 10.0 mi ENE 9.2 mph - N/A   Partly Cloudy
9:53 PM 77.0 °F - 72.0 °F 84% 30.03 in 10.0 mi ENE 8.1 mph - N/A   Partly Cloudy
10:53 PM 75.9 °F - 71.1 °F 85% 30.04 in 10.0 mi NNE 5.8 mph - N/A   Partly Cloudy
11:53 PM 75.0 °F - 71.1 °F 87% 30.04 in 10.0 mi NE 6.9 mph - N/A   Partly Cloudy